Location: ????? ???????
(25.7275°N, 32.5929°E)
Time: 07:54:57
(UTC+00:00)

DMSP B5D2-2 - Visible Passes

Search period start: 21 June 2021 00:00
Search period end: 01 July 2021 00:00
Orbit: 790 x 805 km, 98.3° (Epoch: 20 June)

Date Brightness Start Highest point End Pass type
(mag) Time Alt. Az. Time Alt. Az. Time Alt. Az.
21 Jun 7.1 18:10:01 10° NW 18:12:47 15° WNW 18:15:31 10° W visible
22 Jun 6.3 17:41:24 10° NNW 17:45:47 28° WNW 17:50:10 10° SW visible
23 Jun 5.0 17:13:36 10° N 17:18:42 55° WNW 17:23:45 10° SSW visible
25 Jun 6.9 18:00:06 10° NNW 18:03:33 18° WNW 18:06:59 10° WSW visible
26 Jun 5.9 17:31:50 10° N 17:36:31 35° WNW 17:41:11 10° SW visible
27 Jun 4.5 17:04:13 10° N 17:09:24 69° WNW 17:14:33 10° SSW visible
28 Jun 7.3 18:19:48 10° NW 18:21:16 11° WNW 18:22:44 10° W visible
29 Jun 6.7 17:50:21 10° NNW 17:54:19 22° WNW 17:58:15 10° WSW visible
30 Jun 5.5 17:22:21 10° N 17:27:15 43° WNW 17:32:08 10° SW visible
